Home > Weather > Paradise > Past weeks

Flag for USA Weather for the Past 2 Weeks in Paradise, Nevada, USA

Now
83 °F

Partly sunny.


Feels Like: 80 °F
Forecast: 55 / 70 °F
Wind: 16 mph from Southeast

Location: McCarran International Airport

Current Time: May 5, 2016 at 5:40:29 PM

Latest Report: May 5, 2016 at 4:56 PM


Visibility: 10 mi

Pressure: 29.57 "Hg (27.49 "Hg at 643m altitude)

Humidity: 9%

Dew Point: 19 °F

Location of ParadiseLocation

Historic Weather in Paradise — Graph

°F

Paradise Temperature Yesterday

Maximum temperature yesterday: 91 °F (at 2:56 PM)
Minimum temperature yesterday: 65 °F (at 5:56 AM)
Average temperature yesterday: 80 °F

High & Low Weather Summary for the Past Weeks

 TemperatureHumidityPressure
High91 °F (Apr 20, 3:56 PM)100% (Apr 30, 7:56 AM)30.03 "Hg (Apr 30, 7:56 AM)
Low49 °F (Apr 30, 7:56 AM)3% (Apr 20, 5:56 PM)29.51 "Hg (Apr 28, 2:56 AM)
Average69 °F31%29.75 "Hg
* Reported Apr 20 3:56 PM — May 5 3:56 PM, Paradise, Weather by CustomWeather, © 2016

Note: Actual official high and low records may vary slightly from our data, if they occured in-between our weather recording intervals... More about our weather records

Advertising

Paradise Weather History for the Previous 24 Hours

Scroll right to see more
 ConditionsComfort  
Time TempWeatherWind HumidityBarometerVisibility
3:56 PM
Thu, May 5
83 °FPartly sunny.12 mph8%29.59 "Hg10 mi
2:56 PM84 °FPartly sunny.18 mph8%29.61 "Hg10 mi
1:56 PM83 °FPartly sunny.15 mph8%29.64 "Hg10 mi
12:56 PM84 °FPartly sunny.13 mph9%29.65 "Hg10 mi
11:56 AM81 °FPartly sunny.13 mph12%29.69 "Hg10 mi
10:56 AM80 °FPartly sunny.17 mph12%29.70 "Hg10 mi
9:56 AM76 °FPartly sunny.7 mph22%29.72 "Hg10 mi
8:56 AM76 °FPartly sunny.6 mph21%29.71 "Hg10 mi
7:56 AM74 °FPartly sunny.3 mph24%29.70 "Hg10 mi
6:56 AM71 °FPartly sunny.3 mph26%29.70 "Hg10 mi
5:56 AM70 °FPassing clouds.No wind26%29.69 "Hg10 mi
4:56 AM70 °FPassing clouds.5 mph27%29.66 "Hg10 mi
3:56 AM72 °FPassing clouds.7 mph24%29.65 "Hg10 mi
2:56 AM73 °FPassing clouds.5 mph22%29.64 "Hg10 mi
1:56 AM74 °FPassing clouds.5 mph21%29.65 "Hg10 mi
12:56 AM76 °FHigh level clouds.7 mph18%29.66 "Hg10 mi
11:56 PM
Wed, May 4
77 °FHigh level clouds.3 mph18%29.68 "Hg10 mi
10:56 PM80 °FPassing clouds.6 mph15%29.68 "Hg10 mi
9:56 PM82 °FPassing clouds.5 mph14%29.68 "Hg10 mi
8:56 PM85 °FPassing clouds.5 mph12%29.67 "Hg10 mi
7:56 PM87 °FPartly sunny.6 mph10%29.65 "Hg10 mi
6:56 PM89 °FPartly sunny.8 mph8%29.66 "Hg10 mi
5:56 PM90 °FPartly sunny.14 mph8%29.67 "Hg10 mi
Weather by CustomWeather, © 2016

See weather overviewHow to use our weather pages